www.pogodaiklimat.ru

Погода и климат >> Архив погоды >> Россия >> Красноярский край >> Туруханск


ПОГОДА в Туруханске

АРХИВ ПОГОДЫ в Туруханске

Время (UTC), дата Ветер
(напр.,м/с)
 
Видим.   Явления Облачность Т
(С)
Тd
(С)
f
(%)
Тe
(С)
Тes
(С)
Комфортность P
(гПа)
Po
(гПа)
Тmin
(С)
Tmax
(С)
R
(мм)
R24
(мм)
S
(см)
18 11.06 В 2 20 км 9/9 600 м
[Sc]
+16.0 +5.6 50 +16 +16 1003.1 998.1
21 11.06 ЮВ 1 50 км 9/8 600 м
[Sc Ci fib]
+13.3 +6.9 65 +14 +14 1003.0 998.0
00 12.06 Ю 2 50 км 9/8 600 м
[Sc Ci fib]
+16.3 +9.2 63 +16 +17 1004.3 999.4 +12.8
03 12.06 Ю 2 50 км 9/8 600 м
[Sc Cs]
+18.2 +9.9 58 +19 +20 1005.1 1000.2
06 12.06 СЗ 3 10 км слабый ливневой дождь 9/8 300 м
[Cb cap Cs]
+15.4 +9.6 68 +15 +17 1006.5 1001.5
09 12.06 С 3 50 км {ливн. осадки} 9/6 1000 м
[Sc Ac trans Cs]
+16.6 +11.1 70 +16 +18 1007.0 1002.1
12 12.06 С 3 50 км {ливн. осадки} 9/8 300 м
[Cb cap Cs]
+15.4 +9.6 68 +15 +15 1007.3 1002.3 +18.2 0.0
15 12.06 СЗ 2 50 км 9/9 600 м
[Sc]
+14.2 +10.0 76 +14 +14 1008.0 1003.0
18 12.06 В 1 10 км слабый ливневой дождь 10/10 300 м
[Cb cap]
+12.4 +10.1 86 +12 +12 1008.2 1003.2
21 12.06 С 2 10 км слабый ливневой дождь 10/10 300 м
[Cb cap]
+11.6 +10.6 94 +10 +10 1008.0 1003.0
00 13.06 В 1 20 км {ливн. осадки} 9/9 600 м
[Sc]
+12.6 +10.3 86 +13 +13 1007.8 1002.8 +11.2 0.4
03 13.06 С 2 20 км 8/6 600 м
[Sc Ac trans]
+16.3 +11.9 75 +16 +19 1006.4 1001.5
06 13.06 Ю 2 50 км 9/6 600 м
[Sc Ac trans Ci fib]
+20.2 +12.8 62 +23 +26 комфорт 1006.7 1001.8
09 13.06 ЮЗ 2 50 км {ливн. осадки} 6/4 1000 м
[Cu Sc Ac trans Ci fib]
+22.2 +13.0 56 +25 +29 комфорт 1005.8 1001.0
12 13.06 Ю 1 50 км {ливн. осадки} 6/6 1000 м
[Cu Sc]
+24.0 +11.7 46 +26 +27 жарко 1005.2 1000.4 +24.2 0.0
15 13.06 В 2 50 км 6/5 1000 м
[Sc Ci fib]
+21.3 +11.9 55 +23 +23 комфорт 1005.3 1000.5
18 13.06 В 3 50 км 4/4 1000 м
[Sc]
+17.2 +12.3 73 +17 +17 1005.7 1000.8
21 13.06 В 2 50 км 3/3 1000 м
[Sc]
+15.2 +9.3 68 +15 +15 1006.5 1001.5
00 14.06 В 2 20 км 4/4 1000 м
[Sc]
+16.8 +12.5 76 +17 +19 1007.0 1002.1 +14.5
03 14.06 В 1 50 км 4/3 1000 м
[Sc Ci fib]
+21.9 +13.8 60 +25 +32 комфорт 1006.8 1002.0
06 14.06 Ю 1 50 км 9/5 1000 м
[Cu med, cong Ci fib]
+25.1 +13.3 48 +27 +33 жарко 1006.3 1001.5
09 14.06 Ю 3 50 км 9/6 1000 м
[Cu med, cong Ci fib]
+25.9 +13.0 45 +28 +30 жарко 1005.7 1000.9
12 14.06 Ю 2 50 км 8/3 1000 м
[Cu hum Ci fib]
+26.2 +9.6 35 +27 +29 жарко 1005.2 1000.5 +27.1
15 14.06 штиль 0 50 км 3/0
[Ci fib]
+25.0 +13.0 47 +27 +27 жарко 1005.4 1000.6
18 14.06 СВ 1 50 км 6/3 1000 м
[Sc Ci fib]
+17.9 +11.9 68 +19 +19 1005.9 1001.0
21 14.06 СВ 2 50 км 1/0
[Ci fib]
+16.5 +10.7 69 +17 +17 1005.9 1001.0
00 15.06 В 1 50 км 3/0
[Ci fib]
+22.2 +12.6 54 +25 +28 комфорт 1006.5 1001.7 +15.9
03 15.06 В 1 50 км 4/0
[Ac trans Ci fib]
+26.1 +10.4 37 +27 +35 жарко 1007.0 1002.3
06 15.06 Ю 4 20 км 4/3 1000 м
[Cu hum Ci fib]
+27.8 +6.7 26 +27 +33 жарко 1006.8 1002.1
09 15.06 ЮВ 2
{10}
20 км 5/3 1000 м
[Cu med, cong Ci fib]
+29.8 +7.3 24 +29 +35 жарко 1006.6 1001.9
12 15.06 ЮВ 3 20 км 6/3 1000 м
[Cu med, cong Ci fib]
+30.1 +5.7 21 +28 +30 жарко 1006.2 1001.5 +30.9
15 15.06 В 1 20 км 9/5 1000 м
[Sc Ci fib]
+27.5 +9.5 32 +28 +28 жарко 1007.0 1002.3
18 15.06 В 2 20 км 6/3 1000 м
[Sc Ci fib]
+20.4 +9.3 49 +22 +22 комфорт 1008.1 1003.2
21 15.06 СВ 2 20 км 6/0
[Ci fib]
+18.4 +7.6 49 +19 +19 1009.3 1004.4
00 16.06 В 3 20 км 4/3 1000 м
[Sc Ci fib]
+21.6 +6.8 38 +22 +24 комфорт 1010.0 1005.1 +16.0
03 16.06 В 4 50 км 3/0
[Ci fib]
+25.8 +5.0 26 +25 +30 комфорт 1009.8 1005.0
06 16.06 ЮВ 4-10
{10}
50 км 3/0
[Ci fib]
+27.2 +5.0 24 +26 +34 жарко 1009.9 1005.1
09 16.06 ЮВ 2
{11}
50 км 3/0
[Ci fib]
+27.5 +7.1 27 +27 +35 жарко 1009.4 1004.7
12 16.06 В 2 50 км 3/0
[Ci fib]
+28.2 +5.0 23 +27 +30 жарко 1009.3 1004.6 +28.9
15 16.06 СВ 1 50 км 3/0
[Ci fib]
+27.0 +4.7 24 +26 +26 жарко 1009.8 1005.0
18 16.06 СВ 2 50 км 3/0
[Ci fib]
+18.8 +8.2 50 +20 +20 1010.1 1005.1
21 16.06 СВ 2 50 км 3/0
[Ci fib]
+16.6 +7.4 55 +17 +17 1010.4 1005.4
00 17.06 В 2 50 км 3/0
[Ci fib]
+20.7 +8.6 46 +23 +25 комфорт 1010.3 1005.3 +16.2
03 17.06 В 2 50 км 3/0
[Ci fib]
+27.2 +9.1 32 +24 +32 комфорт 1009.9 1005.1
06 17.06 В 2 50 км 9/5 1000 м
[Cu Sc Ci fib]
+30.1 +7.0 23 +29 +34 жарко 1008.7 1004.0
09 17.06 З 1 20 км 9/8 600 м
[Sc Ci fib]
+29.4 +7.8 26 +29 +31 жарко 1007.5 1002.8
12 17.06 ЮЗ 2
{14}
50 км гроза без осадков {ливн. осадки} 9/9 300 м
[Cb cap]
+21.5 +11.3 52 +23 +24 комфорт 1008.2 1003.4 +31.2 1
15 17.06 ЮВ 1 50 км {гроза} 9/9 300 м
[Cb cap]
+19.8 +11.5 59 +22 +22 комфорт 1007.9 1003.0
18 17.06 Ю 1 50 км {гроза} 8/6 600 м
[Sc Ci fib]
+15.5 +12.0 80 +16 +16 1009.0 1004.0
21 17.06 В 1 50 км 9/8 600 м
[Sc Ci fib]
+12.5 +10.8 89 +12 +12 1009.8 1004.8
00 18.06 ЮВ 1 50 км 8/5 600 м
[Sc Ci fib]
+15.6 +13.8 89 +16 +18 1010.7 1005.7 +12.3
03 18.06 Ю 2 50 км 8/5 600 м
[Sc Ci fib]
+19.2 +14.8 76 +21 +25 комфорт 1010.4 1005.4
06 18.06 Ю 1 50 км 9/5 1000 м
[Cu Sc Cs]
+22.4 +13.2 56 +25 +31 комфорт 1009.1 1004.3
09 18.06 СЗ 1 50 км 9/6 1000 м
[Cu Sc Cs]
+23.6 +12.2 49 +25 +29 комфорт 1008.2 1003.4
12 18.06 С 1 50 км 9/8 1000 м
[Sc Cs]
+22.8 +11.8 50 +25 +26 комфорт 1007.7 1002.9 +24.0
15 18.06 СВ 1 50 км 9/8 600 м
[Sc Ci fib]
+19.8 +12.3 62 +22 +23 комфорт 1007.2 1002.3

 

Местоположение метеостанции Туруханск (Красноярский край, Россия): широта 65.78 долгота 87.93 высота над уровнем моря 38 м.

В архиве по умолчанию представлена погода в Туруханске за последнюю неделю. Архивные данные за месяц целиком и за предыдущие месяцы, начиная с января 2011 года, Вы можете получить, выбрав интересующий диапазон дат из раскрывающегося списка и нажав кнопку "Ввод!".


*Определитесь, кто Вы:
робот инопланетянин человек

Внимание! Время в таблицах - всемирное. Для получения местного времени необходимо прибавить поправку, которая в Туруханске равна 7 ч.

Смотрите также архив погоды в соседних городах и на ближайших метеорологических станциях:

Погода в Курейке (Красноярский край, Россия) (83 км)
Погода в Большом Пороге (Эвенкия, Россия) (98 км)
Погода в Светлогорске (Красноярский край, Россия) (132 км)
Погода в Верещагино (Красноярский край, Россия) (174 км)
Погода в Горбиачине (Красноярский край, Россия) (189 км)
Погода в Игарке (Красноярский край, Россия) (197 км)
Погода в Советской Речке (Красноярский край, Россия) (218 км)
Погода в Красноселькупске (Ямало-Ненецкий АО, Россия) (251 км)
Погода в Снежногорске (Красноярский край, Россия) (258 км)
Погода в Агате (Эвенкия, Россия) (276 км)

Пояснения к столбцам:

Ветер - указаны скорость ветра в м/с - средняя за 10 мин, порывы в срок и между сроками (в фигурных скобках) и направление, откуда дует ветер: С - северный, СВ - северо-восточный, В - восточный, ЮВ - юго-восточный, Ю - южный, ЮЗ - юго-западный, З - западный, СЗ - северо-западный.
Видимость - горизонтальная дальность видимости в метрах или километрах. При видимости от 1 до 10 км при отсутствии осадков обычно наблюдается дымка, при ухудшении видимости до 1 км и менее - туман. В сухую погоду видимость может ухудшаться дымом, пылью или мглою.
Явления - указаны атмосферные явления, наблюдавшиеся в срок или в последний час перед сроком; фигурными скобками обозначены явления, наблюдавшиеся между сроками (за 1-3 часа до срока); квадратными скобками обозначены град или гололедные отложения с указанием их диаметра в мм.
Облачность - указаны через наклонную черту общая и нижняя облачность в баллах и высота нижней границы облаков в метрах; квадратными скобками обозначены формы облаков: Ci - перистые, Cs - перисто-слоистые, Cc - перисто-кучевые, Ac - высококучевые, As - высокослоистые, Sc - слоисто-кучевые, Ns - слоисто-дождевые, Cu - кучевые, Cb - кучево-дождевые. Подробнее классификацию облаков см. в Атласе облаков (PDF).
T - Температура воздуха - температура, измеренная на высоте 2 м над землей.
Td - Температура точки росы - температура, при понижении до которой содержащийся в воздухе водяной пар достигнет насыщения.
f - Относительная влажность воздуха - влажноcть воздуха, измеренная на высоте 2 м над землей.
Te - Эффективная температура - температура, которую ощущает одетый по сезону человек в тени. Характеристика душности погоды. При расчете учитывается влияние влажности воздуха и скорости ветра на теплоощущения человека.
Tes - Эффективная температура на солнце - температура, которую ощущает человек, с поправкой на солнечный нагрев. Характеристика знойности погоды. Зависит от высоты солнца над горизонтом, облачности и скорости ветра. Ночью, в пасмурную погоду, а также при ветре 12 м/с и более поправка равна нулю.
P - Атмосферное давление - приведенное к уровню моря атмосферное давление.
Po - Атмосферное давление - измеренное на уровне метеостанции атмосферное давление.
Tmin - Минимальная температура - минимум температуры воздуха на высоте 2 м над землей.
Tmax - Максимальная температура - максимум температуры воздуха на высоте 2 м над землей.
R - Количество осадков - Количество выпавших осадков за период времени, мм. При наведении курсора мыши на число - период времени, за который выпало указанное количество осадков.
R24 - Количество осадков - Количество выпавших осадков за 24 часа, мм.
S - Снежный покров - Высота снежного покрова, см. При наведении курсора мыши на число - состояние снежного покрова и степень покрытия местности в баллах.